FIN317 EFHK-EFVA

Flight info

Callsign FIN317
Flight time 1h 0m
Altitude 16000
Route NEPEK Y361 NISVI DCT GUBTU
Aircraft AT75/M-SDFGIRY/S

Departure

Time 2026-04-23 16:36
Airport Helsinki Vantaa Airport (EFHK)

Arrival

Time 2026-04-23 17:36
Airport Vaasa Airport (EFVA)
Time Latitude Longitude Altitude Speed Heading
2026-04-23 15:57 60.31520 24.97367 160 ft 0 kts 243°
2026-04-23 16:26 60.31520 24.97368 160 ft 1 kts 243°
2026-04-23 16:27 60.31533 24.97419 160 ft 7 kts 243°
2026-04-23 16:27 60.31552 24.97494 160 ft 0 kts 243°
2026-04-23 16:27 60.31553 24.97478 160 ft 1 kts 287°
2026-04-23 16:27 60.31562 24.97465 160 ft 3 kts 330°
2026-04-23 16:28 60.31580 24.97448 160 ft 5 kts 334°
2026-04-23 16:28 60.31627 24.97400 160 ft 10 kts 333°
2026-04-23 16:28 60.31701 24.97324 160 ft 12 kts 333°
2026-04-23 16:28 60.31770 24.97253 160 ft 11 kts 333°
2026-04-23 16:29 60.31839 24.97182 160 ft 11 kts 333°
2026-04-23 16:29 60.31909 24.97110 160 ft 11 kts 333°
2026-04-23 16:29 60.31973 24.97043 160 ft 11 kts 332°
2026-04-23 16:29 60.32040 24.96973 160 ft 11 kts 331°
2026-04-23 16:30 60.32110 24.96891 160 ft 12 kts 329°
2026-04-23 16:30 60.32184 24.96806 161 ft 12 kts 330°
2026-04-23 16:30 60.32245 24.96711 162 ft 10 kts 284°
2026-04-23 16:30 60.32208 24.96579 165 ft 13 kts 229°
2026-04-23 16:31 60.32133 24.96415 164 ft 19 kts 227°
2026-04-23 16:31 60.32051 24.96234 164 ft 12 kts 226°
2026-04-23 16:31 60.32013 24.96148 166 ft 8 kts 228°
2026-04-23 16:31 60.31965 24.96040 166 ft 13 kts 228°
2026-04-23 16:32 60.31892 24.95880 165 ft 18 kts 227°
2026-04-23 16:32 60.31797 24.95672 166 ft 24 kts 228°
2026-04-23 16:32 60.31693 24.95438 166 ft 22 kts 227°
2026-04-23 16:32 60.31590 24.95211 166 ft 20 kts 227°
2026-04-23 16:33 60.31503 24.95019 164 ft 16 kts 226°
2026-04-23 16:33 60.31429 24.94863 162 ft 17 kts 229°
2026-04-23 16:33 60.31421 24.94682 160 ft 15 kts 312°
2026-04-23 16:33 60.31500 24.94541 160 ft 16 kts 320°
2026-04-23 16:34 60.31550 24.94561 162 ft 0 kts 48°
2026-04-23 16:35 60.31553 24.94569 162 ft 10 kts 47°
2026-04-23 16:35 60.31739 24.94980 168 ft 68 kts 47°
2026-04-23 16:35 60.32181 24.95952 173 ft 118 kts 47°
2026-04-23 16:35 60.32775 24.97306 433 ft 132 kts 43°
2026-04-23 16:36 60.33440 24.98658 884 ft 137 kts 28°
2026-04-23 16:36 60.34290 24.99213 1551 ft 129 kts
2026-04-23 16:36 60.35183 24.99361 2074 ft 128 kts 359°
2026-04-23 16:36 60.36070 24.99421 2460 ft 131 kts 358°
2026-04-23 16:37 60.37049 24.99507 2561 ft 151 kts 358°
2026-04-23 16:37 60.38027 24.98898 2902 ft 152 kts 319°
2026-04-23 16:37 60.38770 24.97359 3227 ft 154 kts 320°
2026-04-23 16:37 60.39553 24.95898 3645 ft 153 kts 322°
2026-04-23 16:38 60.40376 24.94524 4019 ft 154 kts 325°
2026-04-23 16:38 60.41236 24.93215 4420 ft 155 kts 328°
2026-04-23 16:38 60.42120 24.91971 4802 ft 155 kts 329°
2026-04-23 16:38 60.43023 24.90759 5195 ft 156 kts 330°
2026-04-23 16:39 60.43933 24.89542 5555 ft 157 kts 331°
2026-04-23 16:39 60.44850 24.88314 5930 ft 159 kts 331°
2026-04-23 16:39 60.45774 24.87075 6277 ft 160 kts 331°
2026-04-23 16:39 60.46700 24.85832 6672 ft 158 kts 331°
2026-04-23 16:40 60.47614 24.84599 7052 ft 157 kts 331°
2026-04-23 16:40 60.48523 24.83373 7424 ft 156 kts 331°
2026-04-23 16:40 60.49422 24.82155 7816 ft 154 kts 331°
2026-04-23 16:40 60.50314 24.80951 8194 ft 154 kts 332°
2026-04-23 16:41 60.51200 24.79751 8569 ft 153 kts 332°
2026-04-23 16:41 60.52080 24.78561 8945 ft 151 kts 332°
2026-04-23 16:41 60.52946 24.77385 9286 ft 151 kts 332°
2026-04-23 16:41 60.53819 24.76202 9663 ft 150 kts 332°
2026-04-23 16:42 60.54687 24.75024 9988 ft 150 kts 332°
2026-04-23 16:42 60.55555 24.73848 10283 ft 150 kts 332°
2026-04-23 16:42 60.56426 24.72665 10565 ft 151 kts 332°
2026-04-23 16:42 60.57299 24.71479 10846 ft 151 kts 333°
2026-04-23 16:43 60.58176 24.70290 11125 ft 152 kts 332°
2026-04-23 16:43 60.59054 24.69095 11409 ft 152 kts 333°
2026-04-23 16:43 60.59935 24.67904 11674 ft 153 kts 333°
2026-04-23 16:43 60.60820 24.66701 11956 ft 153 kts 333°
2026-04-23 16:44 60.61703 24.65497 12216 ft 153 kts 333°
2026-04-23 16:44 60.62589 24.64290 12457 ft 153 kts 333°
2026-04-23 16:44 60.63476 24.63077 12723 ft 153 kts 333°
2026-04-23 16:44 60.64363 24.61869 13004 ft 153 kts 333°
2026-04-23 16:45 60.65247 24.60661 13270 ft 153 kts 334°
2026-04-23 16:45 60.66133 24.59451 13539 ft 154 kts 333°
2026-04-23 16:45 60.67022 24.58236 13772 ft 154 kts 333°
2026-04-23 16:45 60.67912 24.57017 13987 ft 154 kts 333°
2026-04-23 16:46 60.68798 24.55791 14216 ft 154 kts 334°
2026-04-23 16:46 60.69681 24.54572 14439 ft 153 kts 334°
2026-04-23 16:46 60.70562 24.53361 14667 ft 153 kts 334°
2026-04-23 16:46 60.71432 24.52168 14879 ft 152 kts 334°
2026-04-23 16:47 60.72311 24.50970 15098 ft 152 kts 334°
2026-04-23 16:47 60.73189 24.49770 15296 ft 152 kts 334°
2026-04-23 16:47 60.74064 24.48571 15503 ft 151 kts 334°
2026-04-23 16:47 60.74953 24.47440 15668 ft 150 kts 338°
2026-04-23 16:48 60.75883 24.46433 15780 ft 154 kts 339°
2026-04-23 16:48 60.76852 24.45423 15827 ft 159 kts 339°
2026-04-23 16:48 60.77859 24.44377 15846 ft 166 kts 338°
2026-04-23 16:48 60.78883 24.43210 15854 ft 171 kts 336°
2026-04-23 16:49 60.79586 24.42380 15860 ft 174 kts 336°
2026-04-23 16:49 60.81003 24.40746 15864 ft 179 kts 337°
2026-04-23 16:49 60.82103 24.39499 15864 ft 182 kts 337°
2026-04-23 16:49 60.83221 24.38233 15865 ft 185 kts 337°
2026-04-23 16:50 60.84354 24.36948 15865 ft 187 kts 337°
2026-04-23 16:50 60.85497 24.35654 15870 ft 188 kts 337°
2026-04-23 16:50 60.86647 24.34348 15867 ft 190 kts 337°
2026-04-23 16:50 60.87805 24.33035 15865 ft 191 kts 337°
2026-04-23 16:51 60.88964 24.31712 15864 ft 191 kts 337°
2026-04-23 16:51 60.90125 24.30381 15859 ft 191 kts 336°
2026-04-23 16:51 60.90890 24.29495 15860 ft 191 kts 336°
2026-04-23 16:51 60.92044 24.28146 15865 ft 191 kts 336°
2026-04-23 16:52 60.93194 24.26788 15866 ft 190 kts 336°
2026-04-23 16:52 60.94348 24.25449 15865 ft 190 kts 337°
2026-04-23 16:52 60.95504 24.24117 15862 ft 190 kts 337°
2026-04-23 16:52 60.96661 24.22789 15866 ft 190 kts 337°
2026-04-23 16:53 60.98195 24.21029 15866 ft 191 kts 337°
2026-04-23 16:53 60.98978 24.20132 15862 ft 191 kts 337°
2026-04-23 16:53 61.00138 24.18802 15863 ft 191 kts 337°
2026-04-23 16:53 61.01297 24.17473 15857 ft 190 kts 337°
2026-04-23 16:54 61.02453 24.16144 15864 ft 190 kts 337°
2026-04-23 16:54 61.03608 24.14815 15865 ft 190 kts 337°
2026-04-23 16:54 61.04766 24.13484 15860 ft 191 kts 337°
2026-04-23 16:54 61.05923 24.12152 15865 ft 191 kts 337°
2026-04-23 16:55 61.07081 24.10820 15860 ft 191 kts 337°
2026-04-23 16:55 61.08224 24.09502 15860 ft 191 kts 337°
2026-04-23 16:55 61.09381 24.08168 15864 ft 191 kts 337°
2026-04-23 16:55 61.10539 24.06828 15853 ft 190 kts 337°
2026-04-23 16:56 61.11693 24.05496 15861 ft 190 kts 337°
2026-04-23 16:56 61.12847 24.04160 15860 ft 190 kts 337°
2026-04-23 16:56 61.13997 24.02830 15859 ft 189 kts 337°
2026-04-23 16:56 61.15143 24.01502 15863 ft 189 kts 337°
2026-04-23 16:57 61.16288 24.00173 15861 ft 189 kts 337°
2026-04-23 16:57 61.17432 23.98844 15864 ft 188 kts 338°
2026-04-23 16:57 61.18577 23.97515 15859 ft 188 kts 337°
2026-04-23 16:57 61.19719 23.96183 15859 ft 188 kts 337°
2026-04-23 16:58 61.20860 23.94856 15859 ft 188 kts 337°
2026-04-23 16:58 61.21999 23.93526 15858 ft 188 kts 337°
2026-04-23 16:58 61.23138 23.92200 15857 ft 187 kts 337°
2026-04-23 16:58 61.24275 23.90873 15862 ft 187 kts 338°
2026-04-23 16:59 61.25411 23.89543 15858 ft 188 kts 337°
2026-04-23 16:59 61.26548 23.88214 15858 ft 187 kts 337°
2026-04-23 16:59 61.27684 23.86884 15856 ft 187 kts 337°
2026-04-23 16:59 61.28818 23.85560 15858 ft 187 kts 338°
2026-04-23 17:00 61.29952 23.84229 15860 ft 187 kts 338°
2026-04-23 17:00 61.31084 23.82900 15859 ft 187 kts 338°
2026-04-23 17:00 61.32219 23.81569 15854 ft 187 kts 337°
2026-04-23 17:00 61.33351 23.80239 15858 ft 187 kts 337°
2026-04-23 17:01 61.34484 23.78906 15853 ft 187 kts 338°
2026-04-23 17:01 61.35614 23.77573 15852 ft 187 kts 338°
2026-04-23 17:01 61.36744 23.76242 15858 ft 187 kts 337°
2026-04-23 17:01 61.37875 23.74909 15857 ft 187 kts 338°
2026-04-23 17:02 61.39005 23.73573 15855 ft 187 kts 338°
2026-04-23 17:02 61.40134 23.72239 15854 ft 186 kts 338°
2026-04-23 17:02 61.41263 23.70907 15857 ft 187 kts 338°
2026-04-23 17:02 61.42392 23.69572 15853 ft 187 kts 338°
2026-04-23 17:03 61.43520 23.68236 15852 ft 186 kts 338°
2026-04-23 17:03 61.44646 23.66901 15854 ft 186 kts 338°
2026-04-23 17:03 61.45771 23.65569 15863 ft 186 kts 338°
2026-04-23 17:03 61.46899 23.64232 15853 ft 187 kts 338°
2026-04-23 17:04 61.48029 23.62888 15852 ft 187 kts 338°
2026-04-23 17:04 61.49156 23.61549 15852 ft 186 kts 338°
2026-04-23 17:04 61.50278 23.60208 15849 ft 185 kts 338°
2026-04-23 17:04 61.51398 23.58875 15862 ft 185 kts 338°
2026-04-23 17:05 61.52518 23.57543 15858 ft 185 kts 338°
2026-04-23 17:05 61.53640 23.56206 15860 ft 185 kts 338°
2026-04-23 17:05 61.54761 23.54871 15859 ft 186 kts 338°
2026-04-23 17:05 61.55883 23.53532 15860 ft 186 kts 338°
2026-04-23 17:06 61.57008 23.52189 15858 ft 186 kts 338°
2026-04-23 17:06 61.58136 23.50841 15859 ft 187 kts 338°
2026-04-23 17:06 61.59250 23.49506 15858 ft 187 kts 337°
2026-04-23 17:06 61.60379 23.48153 15856 ft 187 kts 337°
2026-04-23 17:07 61.61510 23.46798 15856 ft 187 kts 337°
2026-04-23 17:07 61.62642 23.45439 15859 ft 187 kts 337°
2026-04-23 17:07 61.63775 23.44083 15861 ft 188 kts 337°
2026-04-23 17:07 61.64909 23.42719 15856 ft 188 kts 337°
2026-04-23 17:08 61.66045 23.41354 15857 ft 188 kts 337°
2026-04-23 17:08 61.67184 23.39984 15852 ft 189 kts 337°
2026-04-23 17:08 61.68323 23.38611 15856 ft 189 kts 337°
2026-04-23 17:08 61.69462 23.37237 15853 ft 189 kts 337°
2026-04-23 17:09 61.70600 23.35860 15854 ft 189 kts 337°
2026-04-23 17:09 61.71739 23.34484 15855 ft 189 kts 337°
2026-04-23 17:09 61.72879 23.33104 15857 ft 189 kts 337°
2026-04-23 17:09 61.74020 23.31723 15854 ft 189 kts 337°
2026-04-23 17:10 61.75159 23.30339 15853 ft 189 kts 337°
2026-04-23 17:10 61.76300 23.28954 15857 ft 189 kts 337°
2026-04-23 17:10 61.77443 23.27568 15853 ft 189 kts 337°
2026-04-23 17:10 61.78586 23.26176 15853 ft 189 kts 337°
2026-04-23 17:11 61.79729 23.24787 15857 ft 189 kts 337°
2026-04-23 17:11 61.80871 23.23396 15858 ft 190 kts 337°
2026-04-23 17:11 61.82016 23.22001 15852 ft 190 kts 337°
2026-04-23 17:11 61.83162 23.20605 15855 ft 190 kts 337°
2026-04-23 17:12 61.84310 23.19209 15853 ft 190 kts 336°
2026-04-23 17:12 61.85441 23.17829 15855 ft 190 kts 336°
2026-04-23 17:12 61.86588 23.16429 15856 ft 190 kts 336°
2026-04-23 17:12 61.87734 23.15028 15854 ft 190 kts 336°
2026-04-23 17:13 61.88880 23.13624 15860 ft 190 kts 336°
2026-04-23 17:13 61.90028 23.12220 15859 ft 191 kts 336°
2026-04-23 17:13 61.91175 23.10813 15854 ft 191 kts 336°
2026-04-23 17:13 61.92324 23.09403 15856 ft 191 kts 336°
2026-04-23 17:14 61.93475 23.07991 15856 ft 191 kts 336°
2026-04-23 17:14 61.94623 23.06580 15858 ft 191 kts 336°
2026-04-23 17:14 61.95772 23.05166 15861 ft 191 kts 336°
2026-04-23 17:14 61.96924 23.03751 15861 ft 191 kts 336°
2026-04-23 17:15 61.98076 23.02332 15859 ft 192 kts 336°
2026-04-23 17:15 61.99228 23.00911 15857 ft 191 kts 336°
2026-04-23 17:15 62.00381 22.99487 15861 ft 192 kts 336°
2026-04-23 17:15 62.01535 22.98060 15857 ft 192 kts 336°
2026-04-23 17:16 62.02693 22.96631 15858 ft 192 kts 336°
2026-04-23 17:16 62.03848 22.95198 15859 ft 192 kts 336°
2026-04-23 17:16 62.05004 22.93766 15857 ft 192 kts 336°
2026-04-23 17:16 62.06160 22.92330 15856 ft 192 kts 336°
2026-04-23 17:17 62.07317 22.90892 15859 ft 193 kts 336°
2026-04-23 17:17 62.08477 22.89453 15819 ft 194 kts 336°
2026-04-23 17:17 62.09260 22.88481 15712 ft 199 kts 336°
2026-04-23 17:17 62.10884 22.86461 15513 ft 205 kts 336°
2026-04-23 17:18 62.13394 22.83338 15211 ft 212 kts 335°
2026-04-23 17:18 62.14675 22.81742 15066 ft 214 kts 335°
2026-04-23 17:18 62.15972 22.80124 14916 ft 217 kts 335°
2026-04-23 17:19 62.17279 22.78495 14771 ft 218 kts 335°
2026-04-23 17:19 62.18596 22.76846 14620 ft 220 kts 335°
2026-04-23 17:19 62.19921 22.75189 14480 ft 221 kts 335°
2026-04-23 17:19 62.21253 22.73518 14326 ft 222 kts 335°
2026-04-23 17:20 62.22590 22.71841 14180 ft 223 kts 335°
2026-04-23 17:20 62.25284 22.68450 13895 ft 225 kts 335°
2026-04-23 17:21 62.27540 22.65608 13651 ft 227 kts 335°
2026-04-23 17:21 62.31882 22.60119 13131 ft 229 kts 335°
2026-04-23 17:22 62.33260 22.58379 12978 ft 230 kts 334°
2026-04-23 17:22 62.36026 22.54877 12657 ft 231 kts 334°
2026-04-23 17:23 62.38834 22.51316 12157 ft 238 kts 334°
2026-04-23 17:23 62.40259 22.49503 11872 ft 235 kts 334°
2026-04-23 17:23 62.43000 22.46002 11313 ft 227 kts 334°
2026-04-23 17:24 62.44373 22.44248 11028 ft 226 kts 333°
2026-04-23 17:24 62.45720 22.42530 10755 ft 224 kts 333°
2026-04-23 17:24 62.48388 22.39120 10210 ft 225 kts 333°
2026-04-23 17:25 62.51091 22.35649 9667 ft 227 kts 333°
2026-04-23 17:25 62.52447 22.33906 9380 ft 227 kts 333°
2026-04-23 17:26 62.55176 22.30397 8776 ft 229 kts 333°
2026-04-23 17:26 62.57910 22.26871 8179 ft 228 kts 332°
2026-04-23 17:27 62.60643 22.23339 7598 ft 229 kts 332°
2026-04-23 17:27 62.62010 22.21570 7316 ft 229 kts 332°
2026-04-23 17:27 62.63374 22.19792 7032 ft 228 kts 332°
2026-04-23 17:27 62.64740 22.18020 6761 ft 229 kts 332°
2026-04-23 17:28 62.66108 22.16249 6492 ft 229 kts 332°
2026-04-23 17:28 62.67477 22.14471 6223 ft 230 kts 331°
2026-04-23 17:28 62.68851 22.12679 5930 ft 230 kts 331°
2026-04-23 17:28 62.70218 22.10917 5725 ft 227 kts 333°
2026-04-23 17:29 62.71593 22.09249 5525 ft 226 kts 333°
2026-04-23 17:29 62.72968 22.07619 5320 ft 225 kts 334°
2026-04-23 17:29 62.75711 22.04396 4901 ft 223 kts 334°
2026-04-23 17:30 62.77079 22.02790 4690 ft 223 kts 334°
2026-04-23 17:30 62.79792 21.99596 4262 ft 223 kts 334°
2026-04-23 17:30 62.81182 21.98096 4048 ft 223 kts 336°
2026-04-23 17:31 62.82589 21.96662 3850 ft 223 kts 338°
2026-04-23 17:31 62.84005 21.95247 3637 ft 224 kts 338°
2026-04-23 17:31 62.85419 21.93784 3422 ft 225 kts 335°
2026-04-23 17:31 62.86769 21.92036 3218 ft 226 kts 331°
2026-04-23 17:32 62.88072 21.90104 3048 ft 227 kts 327°
2026-04-23 17:32 62.89334 21.88065 2885 ft 224 kts 329°
2026-04-23 17:32 62.90678 21.86282 2568 ft 228 kts 334°
2026-04-23 17:32 62.92128 21.84835 2337 ft 226 kts 340°
2026-04-23 17:33 62.93564 21.83744 2148 ft 213 kts 345°
2026-04-23 17:33 62.94947 21.82883 1782 ft 195 kts 345°
2026-04-23 17:33 62.96173 21.82071 1462 ft 176 kts 344°
2026-04-23 17:33 62.97285 21.81327 1252 ft 156 kts 347°
2026-04-23 17:34 62.98255 21.80726 1121 ft 140 kts 345°
2026-04-23 17:34 62.99151 21.80108 934 ft 128 kts 345°
2026-04-23 17:34 63.00749 21.79092 650 ft 117 kts 340°
2026-04-23 17:35 63.01526 21.78582 536 ft 117 kts 339°
2026-04-23 17:35 63.03109 21.77518 258 ft 121 kts 338°
2026-04-23 17:35 63.03916 21.76982 94 ft 121 kts 340°
2026-04-23 17:36 63.04691 21.76471 22 ft 105 kts 340°
2026-04-23 17:36 63.05093 21.76173 22 ft 29 kts 333°
2026-04-23 17:36 63.05156 21.76173 25 ft 9 kts 135°
2026-04-23 17:36 63.05068 21.76214 24 ft 15 kts 164°
2026-04-23 17:37 63.04949 21.76293 25 ft 16 kts 167°
2026-04-23 17:37 63.04882 21.76179 21 ft 17 kts 252°
2026-04-23 17:37 63.04730 21.76062 22 ft 16 kts 161°
2026-04-23 17:38 63.04609 21.76145 21 ft 17 kts 163°
2026-04-23 17:38 63.04516 21.76205 21 ft 14 kts 163°
2026-04-23 17:38 63.04433 21.76258 21 ft 11 kts 164°
2026-04-23 17:38 63.04379 21.76273 21 ft 5 kts 212°
2026-04-23 17:39 63.04373 21.76244 23 ft 0 kts 265°
2026-04-23 17:39 63.04375 21.76229 22 ft 2 kts 284°
2026-04-23 17:39 63.04380 21.76189 21 ft 3 kts 281°
2026-04-23 17:39 63.04382 21.76171 21 ft 0 kts 281°